Time,TemperatureF,DewpointF,PressureIn,WindDirection,WindDirectionDegrees,WindSpeedMPH,WindSpeedGustMPH,Humidity,HourlyPrecipIn,Conditions,Clouds,dailyrainin,SoftwareType,DateUTC
2015-07-04 00:03:00,74.0,63.0,30.07,SE,124,6.0,7.0,70,-99.99,,,-99.99,,2015-07-04 05:03:00,
2015-07-04 00:12:00,74.0,62.0,30.07,SE,131,5.0,7.0,69,-99.99,,,-99.99,,2015-07-04 05:12:00,
2015-07-04 00:23:00,73.0,62.0,30.07,SE,138,5.0,7.0,69,-99.99,,,-99.99,,2015-07-04 05:23:00,
2015-07-04 00:53:00,74.0,61.0,30.07,SSE,153,6.0,9.0,66,-99.99,,,-99.99,,2015-07-04 05:53:00,
2015-07-04 01:03:00,74.0,61.0,30.07,SE,138,4.0,6.0,65,-99.99,,,-99.99,,2015-07-04 06:03:00,
2015-07-04 01:12:00,73.0,61.0,30.07,SSE,152,4.0,5.0,68,-99.99,,,-99.99,,2015-07-04 06:12:00,
2015-07-04 01:23:00,72.0,60.0,30.07,SSE,162,5.0,8.0,68,-99.99,,,-99.99,,2015-07-04 06:23:00,
2015-07-04 02:03:00,73.0,59.0,30.07,SSE,157,4.0,5.0,64,-99.99,,,-99.99,,2015-07-04 07:03:00,
2015-07-04 02:12:00,70.0,59.0,30.07,SSE,160,4.0,6.0,66,-99.99,,,-99.99,,2015-07-04 07:12:00,
2015-07-04 02:23:00,73.0,59.0,30.06,South,169,5.0,7.0,64,-99.99,,,-99.99,,2015-07-04 07:23:00,
2015-07-04 02:33:00,73.0,59.0,30.06,SSE,160,6.0,7.0,63,-99.99,,,-99.99,,2015-07-04 07:33:00,
2015-07-04 02:43:00,73.0,59.0,30.06,SSE,165,5.0,7.0,63,-99.99,,,-99.99,,2015-07-04 07:43:00,
2015-07-04 03:03:00,73.0,60.0,30.06,South,184,5.0,8.0,64,-99.99,,,-99.99,,2015-07-04 08:03:00,
2015-07-04 03:12:00,72.0,60.0,30.06,South,182,2.0,3.0,65,-99.99,,,-99.99,,2015-07-04 08:12:00,
2015-07-04 03:23:00,72.0,60.0,30.05,SSW,210,4.0,5.0,68,-99.99,,,-99.99,,2015-07-04 08:23:00,
2015-07-04 03:43:00,71.0,60.0,30.05,SSW,208,5.0,6.0,68,-99.99,,,-99.99,,2015-07-04 08:43:00,
2015-07-04 03:53:00,72.0,60.0,30.05,West,271,4.0,7.0,69,-99.99,,,-99.99,,2015-07-04 08:53:00,
2015-07-04 04:12:00,71.0,61.0,30.05,West,264,5.0,7.0,71,-99.99,,,-99.99,,2015-07-04 09:12:00,
2015-07-04 04:33:00,71.0,60.0,30.06,NW,313,5.0,6.0,71,-99.99,,,-99.99,,2015-07-04 09:33:00,
2015-07-04 04:43:00,71.0,61.0,30.05,NW,316,2.0,4.0,71,-99.99,,,-99.99,,2015-07-04 09:43:00,
2015-07-04 04:53:00,71.0,61.0,30.05,North,11,4.0,6.0,73,-99.99,,,-99.99,,2015-07-04 09:53:00,
2015-07-04 05:03:00,70.0,61.0,30.05,North,11,0.0,1.0,75,-99.99,,,-99.99,,2015-07-04 10:03:00,
2015-07-04 05:13:00,68.0,61.0,30.04,SSW,203,4.0,5.0,81,-99.99,,,-99.99,,2015-07-04 10:13:00,
2015-07-04 05:23:00,68.0,61.0,30.04,SW,222,4.0,5.0,80,-99.99,,,-99.99,,2015-07-04 10:23:00,
2015-07-04 05:33:00,68.0,61.0,30.04,SSW,207,5.0,6.0,80,-99.99,,,-99.99,,2015-07-04 10:33:00,
2015-07-04 05:43:00,68.0,60.0,30.04,SSW,195,7.0,9.0,79,-99.99,,,-99.99,,2015-07-04 10:43:00,
2015-07-04 05:53:00,69.0,60.0,30.04,SSW,206,6.0,8.0,76,-99.99,,,-99.99,,2015-07-04 10:53:00,
2015-07-04 06:03:00,70.0,60.0,30.04,SSW,198,7.0,9.0,74,-99.99,,,-99.99,,2015-07-04 11:03:00,
2015-07-04 06:23:00,69.0,60.0,30.05,SW,222,3.0,6.0,74,-99.99,,,-99.99,,2015-07-04 11:23:00,
2015-07-04 06:33:00,69.0,60.0,30.05,SW,231,4.0,5.0,75,-99.99,,,-99.99,,2015-07-04 11:33:00,
2015-07-04 06:43:00,68.0,60.0,30.05,SSW,209,5.0,6.0,77,-99.99,,,-99.99,,2015-07-04 11:43:00,
2015-07-04 06:53:00,68.0,60.0,30.05,SSW,210,7.0,7.0,79,-99.99,,,-99.99,,2015-07-04 11:53:00,
2015-07-04 07:03:00,68.0,60.0,30.05,SSW,210,6.0,8.0,79,-99.99,,,-99.99,,2015-07-04 12:03:00,
2015-07-04 07:13:00,68.0,60.0,30.05,South,187,5.0,6.0,78,-99.99,,,-99.99,,2015-07-04 12:13:00,
2015-07-04 07:23:00,69.0,61.0,30.05,SSW,199,5.0,7.0,78,-99.99,,,-99.99,,2015-07-04 12:23:00,
2015-07-04 07:33:00,69.0,61.0,30.05,SSW,202,5.0,7.0,76,-99.99,,,-99.99,,2015-07-04 12:33:00,
2015-07-04 08:13:00,72.0,62.0,30.05,SSW,197,5.0,7.0,71,-99.99,,,-99.99,,2015-07-04 13:13:00,
2015-07-04 08:23:00,73.0,62.0,30.06,South,191,7.0,9.0,70,-99.99,,,-99.99,,2015-07-04 13:23:00,
2015-07-04 08:33:00,73.0,62.0,30.06,SSW,193,7.0,10.0,69,-99.99,,,-99.99,,2015-07-04 13:33:00,
2015-07-04 08:43:00,74.0,62.0,30.06,SSW,208,10.0,14.0,68,-99.99,,,-99.99,,2015-07-04 13:43:00,
2015-07-04 08:53:00,74.0,62.0,30.06,SSW,206,10.0,14.0,68,-99.99,,,-99.99,,2015-07-04 13:53:00,
2015-07-04 09:03:00,75.0,63.0,30.06,SSW,209,10.0,13.0,68,-99.99,,,-99.99,,2015-07-04 14:03:00,
2015-07-04 09:12:00,75.0,63.0,30.06,SW,218,9.0,14.0,67,-99.99,,,-99.99,,2015-07-04 14:12:00,
2015-07-04 09:22:00,76.0,63.0,30.06,SW,214,12.0,16.0,66,-99.99,,,-99.99,,2015-07-04 14:22:00,
2015-07-04 09:33:00,76.0,63.0,30.06,SSW,211,11.0,15.0,66,-99.99,,,-99.99,,2015-07-04 14:33:00,
2015-07-04 09:43:00,77.0,64.0,30.07,SSW,207,10.0,14.0,65,-99.99,,,-99.99,,2015-07-04 14:43:00,
2015-07-04 09:53:00,77.0,64.0,30.07,SW,220,11.0,15.0,64,-99.99,,,-99.99,,2015-07-04 14:53:00,
2015-07-04 10:03:00,78.0,64.0,30.08,SSW,212,8.0,13.0,64,-99.99,,,-99.99,,2015-07-04 15:03:00,
2015-07-04 10:12:00,77.0,64.0,30.08,SW,214,10.0,14.0,63,-99.99,,,-99.99,,2015-07-04 15:12:00,
2015-07-04 10:23:00,78.0,64.0,30.08,SSW,210,9.0,14.0,63,-99.99,,,-99.99,,2015-07-04 15:23:00,
2015-07-04 10:33:00,78.0,64.0,30.08,SW,221,9.0,15.0,63,-99.99,,,-99.99,,2015-07-04 15:33:00,
2015-07-04 10:43:00,79.0,64.0,30.08,SW,216,10.0,14.0,61,-99.99,,,-99.99,,2015-07-04 15:43:00,
2015-07-04 10:53:00,79.0,64.0,30.08,SSW,205,8.0,12.0,61,-99.99,,,-99.99,,2015-07-04 15:53:00,
2015-07-04 11:03:00,79.0,64.0,30.08,South,189,7.0,13.0,59,-99.99,,,-99.99,,2015-07-04 16:03:00,
2015-07-04 11:13:00,80.0,64.0,30.08,WSW,247,7.0,11.0,57,-99.99,,,-99.99,,2015-07-04 16:13:00,
2015-07-04 11:23:00,81.0,63.0,30.08,SW,227,5.0,9.0,56,-99.99,,,-99.99,,2015-07-04 16:23:00,
2015-07-04 11:33:00,81.0,62.0,30.08,SW,215,5.0,10.0,53,-99.99,,,-99.99,,2015-07-04 16:33:00,
2015-07-04 12:03:00,83.0,62.0,30.07,South,183,4.0,8.0,50,-99.99,,,-99.99,,2015-07-04 17:03:00,
2015-07-04 12:13:00,83.0,62.0,30.07,SSE,168,7.0,13.0,49,-99.99,,,-99.99,,2015-07-04 17:13:00,
2015-07-04 12:23:00,83.0,63.0,30.07,SSE,148,4.0,7.0,51,-99.99,,,-99.99,,2015-07-04 17:23:00,
2015-07-04 12:34:00,84.0,62.0,30.07,SE,142,5.0,8.0,48,-99.99,,,-99.99,,2015-07-04 17:34:00,